Location: Hysolar-Haus
(48.7436°N, 9.0965°E)
Time: 04:59:08
(UTC+00:00)

ISS - Pass Details

Date: 27 February 2019
Orbit: 406 x 411 km, 51.6° (Epoch: 20 March)

Event Time Altitude Azimuth Distance (km) Brightness Sun altitude
Exits shadow 03:45:09 14° 138° (SE) 1,240 -1.1 -24.5°
Maximum altitude 03:45:13 14° 137° (SE) 1,239 -1.1 -24.5°
Drops below altitude 10° 03:47:02 10° 103° (ESE) 1,465 -0.2 -24.2°
Sets 03:49:50 0° 77° (ENE) 2,331 1.5 -23.8°
